Theta_e
350 355 363 365 365 366 366 365 363 363 362 362 362 362 362 361 360 359 357 355 352 349 346 345 346 344 343 343 343 344 345 347
347 359 360 363 364 364 364 365 364 363 362 362 362 361 361 360 359 357 355 353 352 350 348 345 345 345 344 344 342 345 345 346
349 358 358 363 363 363 363 363 363 362 362 361 361 361 360 359 357 355 354 352 351 350 349 346 345 345 346 346 346 345 345 344
355 356 355 356 361 363 362 362 362 361 361 360 359 359 358 357 356 355 354 353 352 351 349 348 347 347 346 345 345 345 345 344
349 353 351 354 355 358 360 362 361 360 360 359 359 358 357 356 355 355 354 353 352 351 350 349 348 348 347 346 346 346 347 344
345 352 349 349 351 351 354 359 360 360 360 359 358 358 354 350 350 351 350 353 353 352 351 350 350 349 349 348 348 348 347 337
341 349 348 348 349 346 343 356 357 357 356 356 354 355 351 347 347 345 348 354 354 353 352 351 351 351 349 340 339 348 340 338
342 346 349 351 350 344 339 352 349 351 352 352 352 354 351 344 349 344 350 347 351 352 346 348 348 346 341 341 344 341 341 342
341 344 349 352 350 349 344 347 343 345 348 348 349 353 349 348 351 347 348 347 348 346 344 346 346 347 346 350 350 350 349 348
336 343 347 351 352 351 362 348 342 342 343 345 346 349 351 346 352 353 349 348 348 346 348 349 348 346 349 352 352 351 350 352
346 339 349 349 357 355 357 366 352 345 348 347 347 348 349 351 351 350 351 351 353 350 348 347 346 348 347 348 349 351 350 351
346 339 341 353 358 357 358 361 366 355 348 348 350 352 350 354 356 352 349 351 350 351 349 350 349 348 345 344 344 346 348 351
340 346 350 348 358 359 359 357 358 356 353 352 349 354 354 353 355 354 351 348 348 347 346 344 343 342 341 340 341 344 347 351
343 347 356 357 356 359 360 360 360 359 360 358 354 351 358 355 354 356 349 349 350 348 347 345 344 341 339 340 340 347 348 350
336 348 352 362 360 366 360 361 360 358 357 356 356 354 357 358 356 353 355 352 354 349 348 347 345 343 342 341 339 340 348 350
332 340 343 353 366 363 359 356 355 354 355 354 354 356 357 360 357 355 352 356 355 349 348 348 345 347 342 346 347 346 347 347
333 336 341 345 355 360 359 359 356 355 354 355 355 354 357 357 357 356 355 354 352 349 350 350 351 344 345 350 342 341 332 339
330 337 336 342 346 354 357 357 357 357 355 351 352 354 354 355 356 356 355 355 351 350 347 351 353 347 341 347 349 340 330 326
328 330 339 340 340 344 351 348 348 350 347 348 351 351 354 355 352 355 354 352 352 348 349 350 351 351 348 342 346 345 341 337
Wind_Speed
20 18 17 17 16 18 16 14 14 14 13 13 13 12 12 12 11 10 9 8 7 7 7 6 5 4 4 4 3 3 4 7
18 18 17 16 16 16 16 16 14 15 14 14 13 12 12 12 11 10 8 7 7 7 6 6 4 3 3 2 1 2 4 7
17 16 16 16 16 16 15 15 16 15 14 14 13 12 11 11 10 10 10 8 6 6 6 5 4 2 2 2 2 3 5 7
20 16 13 13 13 15 14 15 15 16 15 15 15 15 14 12 10 9 8 8 8 7 6 5 4 4 4 4 5 6 7 8
16 18 14 13 14 12 12 15 15 14 15 14 14 14 15 13 12 11 10 9 9 8 7 6 6 6 6 6 9 10 10 10
14 17 15 15 13 12 13 12 14 17 15 15 13 13 11 7 9 12 11 14 11 10 8 8 8 8 8 10 14 13 11 5
15 18 16 15 14 13 12 13 11 10 9 9 10 11 8 7 9 11 12 16 13 12 11 10 10 10 9 7 7 14 6 9
15 13 18 13 13 13 10 10 7 7 7 7 10 10 8 7 6 7 6 6 6 9 6 9 8 7 10 8 4 7 9 9
16 14 19 15 13 11 8 10 10 8 8 8 9 9 7 4 5 6 6 9 8 6 8 7 7 10 10 3 5 4 4 4
10 12 20 17 13 9 5 9 10 8 9 9 9 10 7 7 5 5 5 5 8 8 9 6 5 2 3 6 6 6 6 3
6 10 9 16 13 12 7 4 7 8 8 8 9 10 12 7 5 6 5 5 5 6 7 6 6 6 5 6 5 4 4 5
3 11 12 12 14 12 11 7 4 7 8 10 8 12 16 11 8 8 8 6 5 5 6 4 5 4 4 4 6 6 5 7
5 7 6 7 15 13 11 9 6 6 7 6 9 8 15 15 12 9 6 9 9 9 9 8 6 5 7 8 8 9 8 7
3 2 4 7 7 14 11 9 8 7 5 5 6 8 12 14 14 8 9 8 8 6 5 5 4 5 5 5 6 5 5 4
4 2 3 2 7 6 10 8 7 8 9 8 7 8 9 11 13 10 8 10 7 8 7 6 7 5 5 5 7 5 5 5
5 2 4 4 2 4 5 8 8 9 9 9 10 11 9 12 14 13 11 10 11 10 9 8 7 8 6 5 3 3 2 4
6 5 3 3 4 3 4 4 6 9 10 9 10 12 9 12 14 13 13 13 11 9 9 10 8 6 6 6 5 3 3 3
4 3 5 6 5 3 5 4 5 6 6 7 9 10 13 13 13 15 15 14 13 11 12 13 8 11 9 5 7 5 4 5
2 5 1 3 4 3 5 6 8 6 8 9 9 8 11 16 17 17 19 16 16 12 13 11 11 10 9 6 4 4 2 2
Wind_Direction
143 140 139 135 137 137 136 142 146 147 144 140 140 137 134 131 126 124 125 124 122 114 113 111 114 111 105 93 61 15 339 322
147 129 144 136 138 141 145 144 147 148 144 141 140 140 137 133 130 126 125 123 124 125 129 127 125 113 95 82 61 328 322 314
137 134 144 138 140 142 150 149 147 147 142 140 135 134 133 136 141 139 139 138 138 140 142 139 141 154 164 205 237 286 296 297
130 135 146 154 144 143 146 146 148 148 146 147 146 145 144 146 149 146 149 152 152 157 161 160 174 202 224 238 255 254 257 269
146 136 153 162 164 160 158 153 152 151 149 148 148 149 150 155 160 163 160 167 168 172 177 183 201 217 231 243 245 242 241 253
158 137 159 170 169 173 163 167 158 158 156 154 155 158 155 175 172 170 190 171 178 181 191 201 208 218 226 236 243 238 242 244
164 152 157 174 168 180 170 154 174 171 174 179 177 172 189 204 174 184 179 168 179 187 196 207 215 224 228 240 238 219 222 236
166 167 155 168 163 186 180 153 174 178 185 189 188 174 201 204 190 197 142 168 178 199 206 209 211 223 224 233 211 179 213 236
167 172 152 159 164 195 172 163 173 183 184 182 191 183 186 215 208 180 164 184 189 179 211 198 208 210 221 259 284 269 266 289
164 173 157 155 165 190 230 171 172 189 180 182 182 182 190 202 206 194 194 210 191 175 202 203 210 191 206 213 225 226 228 253
88 105 307 150 155 175 211 211 176 182 174 185 180 185 191 189 219 181 206 211 214 187 190 183 194 184 187 211 246 269 242 243
157 154 212 182 162 177 189 229 218 175 204 188 191 184 187 197 203 192 189 200 220 212 209 205 194 170 193 219 223 230 217 226
359 155 165 178 164 177 184 204 221 211 199 216 200 189 186 193 199 192 201 199 203 213 203 191 193 188 197 212 215 210 202 199
172 286 210 181 187 177 185 191 206 240 226 211 229 209 184 192 199 192 221 217 207 214 210 204 213 214 211 217 217 209 208 218
87 145 275 230 194 190 178 189 209 209 235 227 225 234 198 187 192 204 214 235 204 217 209 202 197 211 210 201 230 231 194 193
95 49 326 265 238 201 185 185 202 222 216 225 233 219 219 188 196 204 220 220 234 210 210 203 204 202 211 221 207 251 202 219
154 144 167 273 280 217 217 227 222 209 225 220 219 229 222 206 199 210 210 227 221 212 212 216 195 200 211 205 190 183 259 244
150 155 189 186 176 254 272 251 241 260 266 234 218 212 213 214 212 212 217 221 221 214 210 214 197 199 209 208 203 156 204 218
170 237 299 133 148 214 240 273 274 236 241 248 250 224 209 211 212 212 216 221 218 226 218 209 204 198 204 209 149 186 194 116